Location: Newark
(50.1751°N, 5.6239°W)
Time: 14:34:46
(UTC+00:00)

ISS - Pass Details

Date: 26 September 2021
Orbit: 417 x 423 km, 51.6° (Epoch: 28 October)

Event Time Altitude Azimuth Distance (km) Brightness Sun altitude
Rises 20:31:11 0° 285° (WNW) 2,368 1.4 -22.5°
Reaches altitude 10° 20:33:17 10° 285° (WNW) 1,504 0.1 -22.8°
Enters shadow 20:35:48 47° 285° (WNW) 565 -2.8 -23.2°
